Location: Saddleback Butte
(34.6776°N, 117.8050°W)
Time: 10:57:58
(UTC-07:00)

Iridium 35 - Visible Passes

Search period start: 29 August 2016 00:00
Search period end: 08 September 2016 00:00
Orbit: 776 x 779 km, 86.4° (Epoch: 28 August)

Date Brightness Start Highest point End Pass type
(mag) Time Alt. Az. Time Alt. Az. Time Alt. Az.
29 Aug 8.2 20:45:51 10° NW 20:48:16 13° W 20:50:41 10° WSW visible
30 Aug 7.5 20:10:48 10° NNW 20:15:03 26° W 20:19:17 10° SW visible
31 Aug 6.2 19:36:41 10° NNW 19:41:43 50° W 19:46:42 10° SSW visible
02 Sep 8.1 20:11:37 10° NW 20:14:59 18° W 20:18:20 10° WSW visible
03 Sep 7.1 19:37:05 10° NNW 19:41:43 33° W 19:46:20 10° SSW visible
05 Sep 8.6 20:13:14 10° WNW 20:14:53 11° WNW 20:16:31 10° W visible
06 Sep 8.4 05:45:01 10° ESE 05:47:39 14° E 05:50:17 10° NE visible
06 Sep 7.9 19:37:42 10° NNW 19:41:41 23° W 19:45:40 10° SW visible
